Regional Weather Roundup
Issued by NWS

Home | Current Version | Previous Version | Text Only | Print | Product List | Glossary On
Versions: 1 2 3 4 5 6 7 8 9 10 11 12 13 14 15 16 17 18 19 20 21 22 23 24 25 26 27 28 29 30 31 32 33 34 35 36 37 38 39 40 41 42 43 44 45 46 47 48 49 50
000
ASUS45 KSLC 040510
RWRUT

UTAH REGIONAL WEATHER ROUNDUP
NATIONAL WEATHER SERVICE SALT LAKE CITY UT
1100 PM MDT FRI JUL 03 2015

UTZ001>011-023>025-040600-

NORTHERN UTAH

CITY           SKY/WX    TMP DP  RH WIND       PRES   REMARKS
BRIGHAM CITY   MOCLDY    83  48  28 E5        29.93R
HILL AFB       MOCLDY    81  46  28 E13       29.97R
LOGAN          CLEAR     83  48  29 S7        29.94R
OGDEN          PTCLDY    81  47  30 S9        29.94R
PROVO AIRPORT  PTCLDY    79  54  41 SW6       29.96R
SALT LAKE CITY MOCLDY    85  50  29 S7        29.91R
VERNAL         MOCLDY    83  40  21 NW7       29.99R
WENDOVER       MOCLDY    88  45  22 NW21G26   29.95R
HEBER CITY     PTCLDY    70  43  37 CALM      30.07R
WEST JORDAN    CLEAR     81  43  26 CALM      29.97R

$$

UTZ012>022-026-027-040600-

SOUTHERN/CENTRAL UTAH

CITY           SKY/WX    TMP DP  RH WIND       PRES   REMARKS
BLANDING       MOCLDY    70  48  45 NW5       30.22R
BRYCE CANYON   MOCLDY    64  50  60 E3        30.26R
CEDAR CITY     CLOUDY    77  47  34 SW5       30.08R
DELTA          MOCLDY    87  37  17 N7        29.97R
HANKSVILLE     MOCLDY    88  45  22 NW22G32   29.95R
MILFORD        CLOUDY    80  42  25 SE6       30.00R
MOAB/CYNLANDS  MOCLDY    90  44  20 SE18G30   29.90R
PRICE          PTCLDY    82  37  20 NW8       30.05R
ST GEORGE      PTCLDY    90  52  27 E8        29.87R
KANAB          CLOUDY    75  63  64 CALM      30.10R

$$

REGIONAL REPORTS     COLORADO/ARIZONA

CITY           SKY/WX    TMP DP  RH WIND       PRES   REMARKS
CRAIG, CO      PTCLDY    65  47  52 CALM      30.09R
GRAND JUNCTION PTCLDY    80  49  33 SE17      29.97R
RIFLE          TSTM      70  53  54 VRB3      30.10R
MONTROSE       CLEAR     71  48  43 SE8       30.11R
CORTEZ         MOCLDY    69  49  48 CALM      30.15S
PAGE, AZ       CLOUDY    89  44  20 S8        29.98R
GRAND CANYON   CLOUDY    65  56  72 S7        30.24R
KINGMAN        MOCLDY    85  49  28 SE14      29.97R
FLAGSTAFF      LGT RAIN  59  58  96 N3        30.33S

$$

REGIONAL REPORTS    NEVADA/IDAHO/WYOMING

CITY           SKY/WX    TMP DP  RH WIND       PRES   REMARKS
LAS VEGAS, NV  MOCLDY   101  34   9 SW13      29.73R HX  95
ELY            PTCLDY    76  46  34 N3        30.14R
ELKO           MOCLDY    77  52  41 NE6       30.04R
POCATELLO, ID  CLEAR     81  45  28 SW18      29.93R
BURLEY         MOCLDY    75  53  46 S13       29.92R
EVANSTON, WY   PTCLDY    71  41  33 W10       30.19R
ROCK SPRINGS   MOCLDY    73  38  27 NW8       30.13R
KEMMERER       MOCLDY   N/A N/A N/A CALM      30.20S

$$


USA.gov is the U.S. government's official web portal to all federal, state and local government web resources and services.